St. Joseph, KS

11:59 AM CDT on September 15, 2019 (GMT -0500)
Rosecrans Memorial

Weather History for KSTJ - July, 2019

Change the Weather History Date:

Tuesday, July 30, 2019

  Actual Average Record
Temperature  
Mean Temperature 73 °F 77 °F  
Max Temperature 85 °F 87 °F 107 °F (1980)
Min Temperature 61 °F 67 °F 43 °F (1971)
Degree Days  
Heating Degree Days 0 0  
Month to date heating degree days 0 0  
Since 1 June heating degree days 1 8  
Since 1 July heating degree days 0 0  
Cooling Degree Days 8 12  
Month to date cooling degree days 419 358  
Year to date cooling degree days 813 738  
Since 1 June cooling degree days 712 625  
Growing Degree Days 24 (Base 50)    
Moisture  
Dew Point 62 °F    
Average Humidity 69    
Maximum Humidity 93    
Minimum Humidity 44    
Precipitation  
Precipitation T in 0.17 in 2.05 in (1958)
Month to date precipitation 0.81 5.01  
Year to date precipitation 22.08 22.14  
Sea Level Pressure  
Sea Level Pressure 30.07 in    
Wind  
Wind Speed 6 mph (ENE)    
Max Wind Speed 13 mph    
Max Gust Speed 17 mph    
Visibility 8 miles    
Events      
T = Trace of Precipitation, MM = Missing Value Source: NWS Daily Summary

Daily Weather History Graph

Daily Weather History Graph

Search for Another Location

Airport or City:

Astronomy

Jul. 30, 2019 Rise Set
Actual Time 6:16 AM CDT 8:35 PM CDT
Civil Twilight 5:46 AM CDT 9:05 PM CDT
Nautical Twilight 5:08 AM CDT 9:42 PM CDT
Astronomical Twilight 4:27 AM CDT 10:23 PM CDT
Moon 4:25 AM CDT (7/30) 7:40 PM CDT (7/30)
Length of Visible Light 15h 19m
Length of Day
14h 18m
Waning Crescent, 3% of the Moon is Illuminated
Jul 30
Waning Crescent
Jul 31
New
Aug 7
First Quarter
Aug 15
Full
Aug 23
Last Quarter

Hourly Weather History & Observations

Time (CDT) Temp. Heat Index Dew Point Humidity Pressure Visibility Wind Dir Wind Speed Gust Speed Precip Events Conditions
12:53 AM 66.0 °F - 63.0 °F 90% 30.05 in 8.0 mi Calm Calm - N/A   Clear
1:53 AM 66.0 °F - 62.1 °F 87% 30.04 in 8.0 mi Calm Calm - N/A   Clear
2:53 AM 64.9 °F - 63.0 °F 93% 30.04 in 8.0 mi Calm Calm - N/A   Clear
3:53 AM 64.0 °F - 62.1 °F 93% 30.04 in 7.0 mi Calm Calm - N/A   Clear
4:53 AM 63.0 °F - 60.1 °F 90% 30.06 in 8.0 mi NNE 3.5 mph - N/A   Clear
5:53 AM 63.0 °F - 60.1 °F 90% 30.06 in 7.0 mi North 4.6 mph - N/A   Clear
6:53 AM 63.0 °F - 61.0 °F 93% 30.07 in 6.0 mi North - - N/A   Clear
7:53 AM 68.0 °F - 63.0 °F 84% 30.09 in 7.0 mi North 3.5 mph - N/A   Clear
8:53 AM 72.0 °F - 63.0 °F 73% 30.12 in 8.0 mi ENE 4.6 mph - N/A   Clear
9:53 AM 75.0 °F - 63.0 °F 66% 30.12 in 7.0 mi ENE 5.8 mph - N/A   Clear
10:53 AM 77.0 °F - 64.0 °F 64% 30.11 in 7.0 mi East 5.8 mph - N/A   Clear
11:53 AM 79.0 °F - 64.0 °F 60% 30.11 in 7.0 mi East 5.8 mph - N/A   Clear
12:53 PM 81.0 °F 82.2 °F 63.0 °F 54% 30.10 in 7.0 mi ESE 4.6 mph - N/A   Clear
1:53 PM 82.9 °F 84.0 °F 63.0 °F 51% 30.08 in 8.0 mi NE 5.8 mph - N/A   Clear
2:53 PM 84.0 °F 84.9 °F 63.0 °F 49% 30.06 in 8.0 mi North 8.1 mph - N/A   Clear
3:53 PM 84.9 °F 85.9 °F 63.0 °F 48% 30.05 in 8.0 mi NE 8.1 mph - N/A   Clear
4:53 PM 84.0 °F 84.4 °F 61.0 °F 46% 30.05 in 8.0 mi SSE 3.5 mph - N/A   Clear
5:53 PM 82.9 °F 84.0 °F 63.0 °F 51% 30.04 in 7.0 mi ESE 8.1 mph - N/A   Clear
6:53 PM 82.0 °F 83.1 °F 63.0 °F 52% 30.03 in 7.0 mi ENE 9.2 mph - N/A   Clear
7:53 PM 79.0 °F - 62.1 °F 56% 30.04 in 7.0 mi East 9.2 mph - N/A   Clear
8:19 PM 78.1 °F - 62.1 °F 58% 30.06 in 6.0 mi East 6.9 mph - N/A   Haze
8:53 PM 77.0 °F - 62.1 °F 60% 30.05 in 7.0 mi East 6.9 mph - N/A   Clear
9:53 PM 75.9 °F - 63.0 °F 64% 30.06 in 8.0 mi ESE 8.1 mph - N/A   Clear
10:53 PM 75.0 °F - 62.1 °F 64% 30.06 in 9.0 mi ESE 9.2 mph - N/A   Clear
11:53 PM 73.9 °F - 62.1 °F 66% 30.09 in 9.0 mi ENE 5.8 mph - N/A   Partly Cloudy